[[{"header":{"parameterUnit":"m.s-1","parameterCategory":1,"la1":30.2991,"la2":30.254,"lo1":-89.0895,"lo2":-89.0444,"dy":0.0017,"dx":0.0017,"nx":28,"ny":28,"refTime":"2024-05-12T09:00:00:Z","depth":0,"parameterNumber":2,"parameterNumberName":"U-component_of_WINDS"},"data":[0,0,0,0,0,0,0,0,0,0,0,0,0,0,0,0,0,0,0,0,0,0,0,0,0,0,0,0,0,0,0,0,0,0,0,0,0,0,0,0,0,0,0,0,0,0,0,0,0,0,0,0,0,0,0,0,0,0,-4.5018,-4.5017,0,-4.4967,-4.4966,-4.4966,-4.4839,-4.4836,-4.4833,-4.4831,-4.4781,-4.4783,-4.4784,0,0,0,0,0,0,0,0,0,0,0,0,0,-4.501,-4.501,-4.5018,-4.5017,-4.5017,-4.4967,-4.4966,-4.4966,-4.4839,-4.4836,-4.4833,-4.483,-4.4781,-4.4782,-4.4784,0,0,0,0,0,0,0,0,0,0,0,0,0,-4.4992,-4.5011,-4.5018,-4.4947,-4.4941,-4.4967,-4.4966,-4.4965,-4.484,-4.4836,-4.4832,-4.4828,-4.4781,-4.4782,-4.4784,-4.4876,0,0,-4.479,-4.479,0,0,0,0,0,0,0,0,-4.4993,-4.4992,-4.4958,-4.4952,-4.4945,-4.4905,-4.4945,-4.4936,-4.4841,-4.4878,-4.4831,-4.4826,-4.4826,-4.4824,-4.4823,-4.4874,-4.4871,-4.479,-4.4791,-4.4792,-4.4792,0,0,0,0,0,0,0,-4.4994,-4.4994,-4.4998,-4.4958,-4.495,-4.492,-4.4913,-4.4943,-4.4875,-4.4875,-4.4865,-4.4861,-4.4821,-4.4822,-4.4821,-4.4871,-4.479,-4.4791,-4.4792,-4.4793,-4.4995,-4.4999,0,0,0,0,0,0,-4.5005,-4.4995,-4.4999,-4.4996,-4.4959,-4.4923,-4.4915,-4.4922,-4.4875,-4.4864,-4.4864,-4.4855,-4.4821,-4.4819,-4.4819,-4.4923,-4.4792,-4.4793,-4.4794,-4.4991,-4.4996,-4.5001,0,0,0,0,0,0,-4.5005,-4.5007,-4.5001,-4.4993,-4.499,-4.4928,-4.4936,-4.4923,-4.4923,-4.4867,-4.4855,-4.4877,-4.4817,-4.4816,-4.4863,-4.4919,-4.4794,-4.4796,-4.4986,-4.4992,-4.4998,-4.5132,0,0,0,0,0,0,-4.5006,-4.5008,-4.504,-4.4995,-4.4991,-4.5045,-4.494,-4.4925,-4.4926,-4.4914,-4.4875,-4.4865,-4.4814,-4.4861,-4.4865,-4.492,-4.4797,-4.498,-4.4989,-4.4996,-4.5122,-4.5143,-4.516,0,0,0,0,0,-4.5006,-4.5081,-4.5043,-4.5044,-4.5031,-4.5049,-4.5046,-4.4986,-4.4931,-4.4964,-4.4929,-4.4866,-4.4914,-4.4867,-4.487,-4.4926,-4.4976,-4.4986,-4.4996,-4.5114,-4.5139,-4.5159,0,0,0,0,0,0,-4.5135,-4.5073,-4.503,-4.5092,-4.5077,-4.5027,-4.5067,-4.5013,-4.5013,-4.5002,-4.4927,-4.492,-4.4977,-4.4956,-4.4905,-4.5013,-4.4935,-4.4946,-4.5024,-4.5047,-4.5065,-4.5068,-4.4799,0,0,0,0,0,-4.517,-4.5189,-4.5134,-4.5195,-4.5189,-4.513,-4.5135,-4.509,-4.5071,-4.5064,-4.5031,-4.5016,-4.5027,-4.5036,-4.5044,-4.512,-4.511,-4.5161,-4.518,-4.5195,-4.5205,-4.5244,-4.5266,-4.5032,-4.5032,-4.5032,0,0,-4.5244,-4.5213,-4.5229,-4.522,-4.5202,-4.5224,-4.5125,-4.5152,-4.5167,-4.5068,-4.5109,-4.5086,-4.5064,-4.5126,-4.5152,-4.5111,-4.5268,-4.5208,-4.522,-4.5221,-4.5257,-4.5279,-4.5298,-4.5039,-4.5038,-4.5037,0,0,-4.5388,-4.5367,-4.5414,-4.5399,-4.5374,-4.5335,-4.5347,-4.5306,-4.5286,-4.5326,-4.5252,-4.5271,-4.5292,-4.528,-4.5276,-4.5421,-4.5363,-4.5426,-4.5522,-4.5561,-4.558,-4.5595,-4.5646,-4.5665,-4.5436,-4.5436,-4.5436,0,-4.5483,-4.5511,-4.5446,-4.5478,-4.5476,-4.5388,-4.5436,-4.5425,-4.5405,-4.5406,-4.5361,-4.5386,-4.5366,-4.5424,-4.5459,-4.546,-4.5472,-4.5428,-4.5582,-4.5597,-4.5611,-4.5659,-4.5678,-4.5444,-4.5443,-4.5442,-4.5441,0,-4.5629,-4.565,-4.5692,-4.5674,-4.5677,-4.5718,-4.566,-4.5672,-4.5628,-4.5594,-4.5638,-4.561,-4.5611,-4.5622,-4.5579,-4.5675,-4.565,-4.5595,-4.5514,-4.5642,-4.5686,-4.5704,-4.5455,-4.5452,-4.545,-4.5448,0,0,-4.5849,-4.5796,-4.5813,-4.5803,-4.5771,-4.5787,-4.5825,-4.5824,-4.5836,-4.5826,-4.5856,-4.5877,-4.5827,-4.5823,-4.5779,-4.5814,-4.593,-4.5754,-4.5752,-4.5787,-4.6033,-4.6074,-4.6096,-4.5893,-4.5896,-4.5898,-4.6035,0,-4.5985,-4.6043,-4.5987,-4.6058,-4.6077,-4.5996,-4.6029,-4.6013,-4.5984,-4.5997,-4.5965,-4.5981,-4.5913,-4.591,-4.5942,-4.5909,-4.5978,-4.5899,-4.592,-4.5921,-4.5925,-4.6118,-4.6161,-4.6291,-4.6051,-4.6054,-4.6056,0,-4.6149,-4.6146,-4.6219,-4.6182,-4.6189,-4.6219,-4.6215,-4.6229,-4.6211,-4.6187,-4.6185,-4.6132,-4.6167,-4.6091,-4.614,-4.6087,-4.6093,-4.6079,-4.6082,-4.608,-4.5995,-4.612,-4.633,-4.635,-4.6083,-4.6081,-4.6079,0,-4.6301,-4.6316,-4.6361,-4.6356,-4.6316,-4.6339,-4.6324,-4.6301,-4.6306,-4.6304,-4.6306,-4.6309,-4.631,-4.6314,-4.6264,-4.6213,-4.6319,-4.6238,-4.6301,-4.6302,-4.6324,-4.6323,-4.6537,-4.6332,-4.6332,-4.6332,-4.6331,0,-4.6456,-4.6504,-4.6429,-4.6457,-4.6508,-4.6445,-4.6498,-4.6475,-4.6456,-4.6479,-4.641,-4.6433,-4.6365,-4.6382,-4.6344,-4.639,-4.6391,-4.6374,-4.6362,-4.6379,-4.6381,-4.638,-4.6369,-4.6337,-4.6335,-4.6335,-4.6334,0,-4.6634,-4.6586,-4.663,-4.6589,-4.658,-4.6619,-4.6584,-4.6609,-4.6577,-4.6607,-4.661,-4.6559,-4.6575,-4.6526,-4.6535,-4.6509,-4.6576,-4.6551,-4.6582,-4.6574,-4.6638,-4.6633,-4.6857,-4.6884,-4.6664,-4.6666,-4.6668,0,-4.6735,-4.6769,-4.6733,-4.6742,-4.6731,-4.6748,-4.6752,-4.6692,-4.67,-4.6683,-4.6711,-4.6721,-4.6726,-4.6757,-4.6721,-4.6728,-4.6701,-4.678,-4.6702,-4.6717,-4.6701,-4.6699,-4.6702,-4.6795,-4.6798,-4.68,-4.6802,0,-4.6919,-4.6894,-4.6902,-4.6904,-4.6911,-4.6909,-4.6902,-4.6915,-4.6851,-4.6863,-4.6879,-4.6883,-4.6892,-4.6904,-4.6903,-4.6889,-4.6835,-4.6828,-4.6842,-4.6858,-4.6874,-4.6865,-4.6624,-4.6822,-4.682,-4.6818,-4.6817,-4.6816,-4.706,-4.7087,-4.7066,-4.7078,-4.7067,-4.7063,-4.7085,-4.7055,-4.7067,-4.7069,-4.7034,-4.7058,-4.7041,-4.7034,-4.7026,-4.7044,-4.7008,-4.7029,-4.7034,-4.704,-4.705,-4.6873,-4.7044,-4.7043,-4.7043,-4.7042,-4.7042,0,-4.724,-4.7223,-4.7235,-4.7228,-4.7238,-4.7188,-4.7178,-4.719,-4.7211,-4.72,-4.7207,-4.7226,-4.7237,-4.7204,-4.7211,-4.7232,-4.7208,-4.7236,-4.7233,-4.723,-4.7083,-4.7068,-4.7255,-4.7255,-4.7255,-4.7255,-4.7255,-4.7255,-4.7334,-4.7378,-4.7351,-4.7389,-4.7372,-4.7393,-4.7393,-4.7389,-4.738,-4.7404,-4.7413,-4.7391,-4.7372,-4.7377,-4.7386,-4.7376,-4.7381,-4.7418,-4.74,-4.7262,-4.7241,-4.7221,-4.7207,-4.742,-4.742,-4.7545,-4.7546,-4.7547]},{"header":{"parameterUnit":"m.s-1","parameterCategory":1,"la1":30.2991,"la2":30.254,"lo1":-89.0895,"lo2":-89.0444,"dy":0.0017,"dx":0.0017,"nx":28,"ny":28,"refTime":"2024-05-12T09:00:00:Z","depth":0,"parameterNumber":3,"parameterNumberName":"V-component_of_WINDS"},"data":[0,0,0,0,0,0,0,0,0,0,0,0,0,0,0,0,0,0,0,0,0,0,0,0,0,0,0,0,0,0,0,0,0,0,0,0,0,0,0,0,0,0,0,0,0,0,0,0,0,0,0,0,0,0,0,0,0,0,1.9646,1.9647,0,1.9657,1.9657,1.9657,1.9671,1.9671,1.9671,1.9672,1.9679,1.9679,1.9679,0,0,0,0,0,0,0,0,0,0,0,0,0,1.9638,1.9638,1.9646,1.9647,1.9647,1.9657,1.9657,1.9657,1.9671,1.9671,1.9672,1.9672,1.9679,1.9679,1.9679,0,0,0,0,0,0,0,0,0,0,0,0,0,1.9644,1.9638,1.9646,1.9655,1.9656,1.9657,1.9657,1.9657,1.9671,1.9671,1.9672,1.9672,1.9679,1.9679,1.9679,1.9671,0,0,1.9679,1.9679,0,0,0,0,0,0,0,0,1.9644,1.9645,1.9654,1.9654,1.9655,1.9663,1.9656,1.9661,1.9671,1.9665,1.9672,1.9672,1.9673,1.9674,1.9675,1.9671,1.9672,1.9679,1.9679,1.9679,1.9679,0,0,0,0,0,0,0,1.9644,1.9644,1.965,1.9654,1.9655,1.9658,1.9659,1.9657,1.9667,1.9666,1.9667,1.9668,1.9674,1.9675,1.9675,1.9672,1.9679,1.9679,1.9679,1.9679,1.9665,1.9665,0,0,0,0,0,0,1.9642,1.9644,1.965,1.9651,1.9651,1.9658,1.9659,1.966,1.9667,1.9668,1.9667,1.9668,1.9674,1.9675,1.9675,1.9668,1.9679,1.9679,1.9679,1.9665,1.9665,1.9664,0,0,0,0,0,0,1.9642,1.9643,1.965,1.9648,1.9649,1.9658,1.9658,1.966,1.9661,1.9668,1.967,1.9667,1.9675,1.9675,1.9673,1.9668,1.9679,1.9678,1.9666,1.9665,1.9665,1.9652,0,0,0,0,0,0,1.9642,1.9642,1.9639,1.9647,1.9649,1.9647,1.9658,1.966,1.9661,1.9663,1.9668,1.9669,1.9675,1.9673,1.9673,1.9668,1.9678,1.9666,1.9665,1.9665,1.9653,1.9651,1.965,0,0,0,0,0,1.9641,1.9634,1.9639,1.964,1.9646,1.9647,1.9648,1.9655,1.9661,1.9658,1.9663,1.9669,1.9669,1.9672,1.9672,1.9668,1.9666,1.9666,1.9665,1.9654,1.9651,1.965,0,0,0,0,0,0,1.9624,1.9635,1.9641,1.9637,1.9641,1.9649,1.9646,1.9653,1.9654,1.9655,1.9664,1.9665,1.9662,1.9665,1.9668,1.9662,1.9669,1.9668,1.966,1.9658,1.9657,1.9656,1.9678,0,0,0,0,0,1.962,1.9621,1.963,1.9626,1.9628,1.9637,1.9637,1.9643,1.9648,1.9649,1.9654,1.9657,1.9658,1.9658,1.9659,1.9654,1.9656,1.9651,1.9649,1.9648,1.9647,1.9646,1.9644,1.9662,1.9662,1.9662,0,0,1.9611,1.9617,1.9617,1.9622,1.9626,1.9627,1.9638,1.9637,1.9638,1.9649,1.9647,1.9651,1.9655,1.9652,1.965,1.9654,1.9643,1.9647,1.9646,1.9646,1.9645,1.9643,1.9642,1.9662,1.9662,1.9662,0,0,1.9595,1.96,1.9597,1.9602,1.9608,1.9615,1.9614,1.9622,1.9626,1.9625,1.9634,1.9634,1.9635,1.9638,1.964,1.9629,1.9635,1.9629,1.962,1.9619,1.9618,1.9617,1.9613,1.9612,1.9628,1.9628,1.9628,0,1.9583,1.9584,1.9595,1.9595,1.9597,1.9609,1.9607,1.961,1.9616,1.9618,1.9622,1.9625,1.9629,1.9627,1.9625,1.9625,1.9625,1.9628,1.9617,1.9616,1.9615,1.9612,1.9611,1.9627,1.9627,1.9627,1.9627,0,1.957,1.9571,1.9568,1.9576,1.9578,1.9577,1.9587,1.9588,1.9594,1.96,1.96,1.9605,1.9609,1.9609,1.9614,1.9608,1.961,1.9616,1.9623,1.9613,1.961,1.9609,1.9626,1.9626,1.9627,1.9627,0,0,1.9541,1.9557,1.9556,1.956,1.957,1.9571,1.957,1.9575,1.9577,1.9581,1.9581,1.9583,1.9589,1.9591,1.9597,1.9596,1.9589,1.9602,1.9603,1.96,1.9584,1.958,1.9579,1.9593,1.9593,1.9593,1.9584,0,1.9528,1.9529,1.9539,1.9538,1.954,1.9552,1.9552,1.9558,1.9564,1.9566,1.9573,1.9575,1.9582,1.9584,1.9583,1.959,1.9586,1.959,1.9593,1.9593,1.9592,1.9577,1.9572,1.9564,1.9583,1.9583,1.9583,0,1.9511,1.9517,1.9516,1.9528,1.9529,1.9529,1.9535,1.9537,1.9545,1.9549,1.9553,1.9561,1.9562,1.9569,1.9571,1.9574,1.9576,1.9579,1.9579,1.958,1.9587,1.9578,1.9561,1.956,1.9581,1.9581,1.9581,0,1.9492,1.9499,1.95,1.9504,1.9517,1.9517,1.9522,1.953,1.9533,1.9538,1.9541,1.9545,1.9548,1.9552,1.9561,1.9565,1.9562,1.9569,1.9566,1.9566,1.9564,1.9564,1.9548,1.9565,1.9565,1.9565,1.9565,0,1.9476,1.9475,1.9492,1.9493,1.9492,1.9505,1.9504,1.951,1.9518,1.952,1.953,1.9532,1.9544,1.9547,1.9554,1.9555,1.9556,1.956,1.9562,1.9559,1.9559,1.956,1.9561,1.9565,1.9565,1.9565,1.9565,0,1.9454,1.9465,1.9467,1.9481,1.9484,1.9484,1.9495,1.9496,1.9504,1.9506,1.9508,1.952,1.9524,1.9534,1.954,1.9545,1.9545,1.9548,1.9542,1.9544,1.954,1.954,1.9525,1.9524,1.9541,1.9541,1.954,0,1.9443,1.9443,1.9457,1.946,1.9465,1.9469,1.9473,1.9486,1.9489,1.9499,1.9499,1.9505,1.951,1.9517,1.9526,1.9531,1.9535,1.9529,1.9535,1.9533,1.9535,1.9536,1.9536,1.9527,1.9527,1.9527,1.9527,0,1.9422,1.9429,1.9434,1.9442,1.9447,1.9453,1.9461,1.9462,1.9476,1.948,1.9485,1.949,1.9498,1.9503,1.9511,1.9516,1.9524,1.9525,1.9525,1.9522,1.9519,1.9521,1.9539,1.9525,1.9525,1.9525,1.9525,1.9525,1.9406,1.9407,1.9418,1.9424,1.9432,1.9439,1.9441,1.945,1.9455,1.9464,1.9471,1.9476,1.9485,1.9496,1.9501,1.9506,1.9509,1.9508,1.9508,1.9508,1.9507,1.9519,1.9507,1.9507,1.9507,1.9507,1.9507,0,1.9386,1.9395,1.9401,1.9411,1.9417,1.9425,1.9434,1.9438,1.9443,1.9451,1.9457,1.9464,1.9471,1.9481,1.9488,1.949,1.9494,1.9491,1.9491,1.9492,1.9503,1.9503,1.9488,1.9488,1.9488,1.9488,1.9488,1.9488,1.9377,1.938,1.9388,1.9396,1.9404,1.941,1.9415,1.9422,1.9429,1.9437,1.9443,1.945,1.9459,1.9468,1.9474,1.9477,1.9479,1.9476,1.948,1.949,1.9491,1.9493,1.9493,1.9476,1.9476,1.9469,1.9469,1.9469]}]]